Location: Unspecified
(0.0000°N, 0.0000°E)
Time: 09:39:28
(UTC+00:00)

SRMSAT - Pass Details

Date: 02 April 2019
Orbit: 849 x 865 km, 20.0° (Epoch: 26 April)

Event Time Altitude Azimuth Distance (km) Brightness Sun altitude
Rises 21:03:15 0° 257° (WSW) 3,413 ? -44.7°
Reaches altitude 10° 21:05:53 10° 262° (W) 2,473 ? -45.3°
Enters shadow 21:06:28 13° 263° (W) 2,268 ? -45.5°
